Date,TemperatureHighF,TemperatureAvgF,TemperatureLowF,DewpointHighF,DewpointAvgF,DewpointLowF,HumidityHigh,HumidityAvg,HumidityLow,PressureMaxIn,PressureMinIn,WindSpeedMaxMPH,WindSpeedAvgMPH,GustSpeedMaxMPH,PrecipitationSumIn
2013-1-1,32,26,12,26,12,-1,77,57,42,29.85,29.62,23,10,39,0.00
2013-1-2,24,14,3,13,2,-11,67,59,44,30.06,29.83,16,8,28,0.00
2013-1-3,20,10,0,5,-7,-12,70,48,28,30.07,29.93,14,6,21,0.00
2013-1-4,37,28,13,20,17,6,82,65,48,29.91,29.73,21,8,30,0.00
2013-1-5,37,31,21,22,16,12,70,57,39,30.19,29.74,24,7,30,0.00
2013-1-6,40,30,19,25,22,12,88,72,55,30.14,29.86,19,5,27,0.00
2013-1-7,33,30,23,27,17,7,79,60,36,30.32,29.89,15,6,24,0.00
2013-1-8,44,34,22,22,19,11,78,57,39,30.29,30.18,14,5,24,0.00
2013-1-9,41,33,24,31,23,18,80,67,54,30.33,29.90,23,5,31,0.00
2013-1-10,43,38,30,26,22,20,69,53,42,30.46,29.94,34,12,46,0.00
2013-1-11,36,31,26,31,24,20,94,75,57,30.45,30.16,10,2,15,0.09
2013-1-12,40,36,32,39,35,31,98,96,94,30.15,30.06,7,1,10,0.02
2013-1-13,48,42,37,48,42,37,100,100,98,30.08,29.89,18,3,19,0.00
2013-1-14,59,46,36,49,36,21,100,74,33,30.18,29.72,21,6,28,0.00
2013-1-15,38,33,27,24,22,20,82,65,51,30.25,30.14,12,2,20,0.00
2013-1-16,31,29,28,29,26,20,95,88,68,30.18,29.74,6,1,7,0.36
2013-1-17,39,30,23,29,21,3,95,70,41,30.04,29.75,15,6,28,0.00
2013-1-18,23,16,7,6,-4,-9,56,42,27,30.36,30.00,22,8,39,0.00
2013-1-19,42,32,16,24,15,3,60,51,39,30.28,29.78,23,9,27,0.00
2013-1-20,48,36,24,28,18,5,75,51,24,29.83,29.45,39,14,46,0.00
2013-1-21,25,20,15,15,4,-6,88,52,34,29.99,29.75,22,6,31,0.00
2013-1-22,23,16,6,16,5,-10,89,64,34,29.99,29.69,22,6,29,0.01
2013-1-23,11,5,-1,-6,-16,-21,61,38,23,30.07,29.98,19,8,30,0.00
2013-1-24,16,6,-4,-12,-16,-18,50,36,24,30.16,30.02,28,11,35,0.00
2013-1-25,20,12,4,3,-11,-15,64,36,21,30.24,30.01,15,7,27,0.00
2013-1-26,20,13,8,7,-4,-14,78,50,25,30.16,29.95,21,8,29,0.00
2013-1-27,28,17,10,0,-4,-10,65,42,22,30.41,30.16,20,7,24,0.00
2013-1-28,25,19,11,19,8,-6,90,65,35,30.40,29.98,7,2,10,0.18
2013-1-29,34,27,18,29,23,15,95,86,70,30.14,29.99,8,2,11,0.03
2013-1-30,56,42,31,55,41,30,100,97,95,30.09,29.36,19,7,30,0.03
2013-1-31,58,43,27,57,32,7,99,68,40,29.45,28.82,32,18,50,0.76
2013-2-1,30,24,17,10,4,0,53,43,33,30.00,29.46,26,12,36,0.00
2013-2-2,26,20,12,11,2,-1,63,46,35,30.15,29.98,13,6,22,0.00
2013-2-3,27,22,15,16,14,10,82,70,56,29.99,29.66,9,1,11,0.00
2013-2-4,28,21,16,15,4,-2,74,50,28,29.84,29.64,29,10,36,0.00
2013-2-5,29,20,12,12,5,0,66,53,34,29.96,29.84,10,3,18,0.00
2013-2-6,34,26,20,22,13,-2,90,62,35,30.22,29.86,20,6,27,0.00
2013-2-7,26,18,9,-3,-5,-9,55,36,25,30.46,30.23,11,3,14,0.00
2013-2-8,21,18,14,15,10,-7,88,75,29,30.44,29.72,22,5,27,0.26
2013-2-9,18,14,10,15,10,5,89,85,78,30.16,29.65,24,14,41,0.00
2013-2-10,32,20,10,21,10,4,78,66,53,30.35,30.16,15,6,26,0.01
2013-2-11,30,23,16,29,19,7,96,83,60,30.28,29.57,9,2,12,0.22
2013-2-12,40,36,32,33,28,25,97,75,55,29.66,29.54,27,11,36,0.00
2013-2-14,42,35,27,21,18,16,68,51,36,29.91,29.78,13,3,18,0.00
2013-2-15,51,37,25,27,23,18,85,59,37,29.91,29.82,14,4,25,0.00
2013-2-16,39,32,24,30,21,8,93,64,45,29.89,29.68,12,4,19,0.04
2013-2-17,24,18,12,11,2,-3,82,53,39,29.68,29.34,32,17,46,0.00
2013-2-18,27,19,10,-3,-5,-9,54,37,22,30.07,29.60,32,15,41,0.00
2013-2-19,41,32,19,37,16,-3,96,55,29,30.10,29.51,14,4,23,0.10
2013-2-20,37,30,23,36,18,10,96,63,42,29.67,29.45,26,13,39,0.01
2013-2-21,30,23,19,13,10,5,71,56,42,30.14,29.67,26,12,37,0.00
2013-2-22,39,30,20,21,16,14,81,60,39,30.34,30.16,13,4,18,0.00
2013-2-23,34,31,28,30,26,21,95,81,71,30.26,29.89,12,3,16,0.07
2013-2-24,34,32,30,33,31,29,96,96,94,29.88,29.68,8,0,13,0.76
2013-2-25,41,33,27,36,29,26,97,88,71,30.17,29.84,7,1,12,0.00
2013-2-26,42,34,30,32,29,25,93,81,61,30.27,30.12,11,1,13,0.00
2013-2-27,38,34,32,37,31,27,97,92,79,30.12,29.56,14,4,22,1.18
2013-2-28,42,35,31,36,32,30,98,90,74,29.56,29.47,9,1,12,0.01
2013-3-1,38,35,32,33,27,25,94,76,61,29.61,29.47,16,6,23,0.00
2013-3-2,40,34,30,27,24,22,76,68,57,29.61,29.57,13,6,20,0.00
2013-3-3,39,32,27,28,24,22,86,73,59,29.58,29.51,16,6,24,0.01
2013-3-4,36,30,26,27,21,18,87,71,54,29.70,29.53,22,11,32,0.01
2013-3-5,44,35,26,29,24,19,82,65,47,30.02,29.71,16,5,23,0.00
2013-3-6,37,34,31,32,29,25,95,84,68,30.10,30.00,21,4,24,0.04
2013-3-7,34,30,28,28,26,23,95,85,70,30.08,29.98,18,8,25,0.13
2013-3-8,40,33,28,36,28,20,96,83,55,30.14,29.94,15,8,22,0.31
2013-3-9,56,38,26,26,18,5,84,52,13,30.29,30.12,11,5,16,0.00
2013-3-10,46,35,24,29,26,21,93,72,45,30.34,30.22,10,4,20,0.00
2013-3-11,53,40,30,37,30,24,93,70,35,30.23,30.05,16,8,20,0.00
2013-3-12,50,45,39,50,44,37,99,97,84,30.06,29.63,20,9,24,0.44
2013-3-13,47,40,32,44,27,18,98,61,34,29.70,29.63,16,8,24,0.00
2013-3-14,33,28,18,22,13,4,70,53,42,29.76,29.62,21,10,32,0.00
2013-3-15,39,26,15,28,11,1,89,55,24,29.79,29.57,27,9,30,0.00
2013-3-16,36,29,22,24,10,6,77,47,29,29.82,29.62,18,5,27,0.00
2013-3-17,34,25,18,10,5,-2,70,44,26,30.25,29.82,28,7,31,0.00
2013-3-18,37,25,12,22,1,-4,79,39,18,30.39,30.19,10,4,15,0.00
2013-3-19,33,29,24,31,27,22,94,92,82,30.18,29.63,13,4,23,0.91
2013-3-20,35,28,22,24,20,16,92,73,54,29.73,29.62,24,9,32,0.02
2013-3-21,41,29,19,22,14,7,80,56,25,29.73,29.53,14,4,16,0.00
2013-3-22,38,30,22,23,16,12,75,59,35,29.66,29.55,18,7,23,0.00
2013-3-23,40,32,24,20,17,15,77,57,36,29.71,29.57,27,12,38,0.00
2013-3-24,44,36,29,22,21,19,70,54,39,29.75,29.68,19,8,27,0.00
2013-3-25,42,34,26,27,23,19,75,64,48,29.72,29.48,10,2,18,0.00
2013-3-26,48,39,32,28,21,15,77,53,27,29.72,29.51,20,5,24,0.00
2013-3-27,51,40,29,31,22,18,79,51,31,29.82,29.69,19,7,27,0.00
2013-3-28,48,40,34,33,30,25,92,70,42,29.96,29.82,13,3,20,0.00
2013-3-29,55,43,36,32,30,27,74,61,35,29.98,29.92,15,5,20,0.00
2013-3-30,54,42,33,30,20,10,79,47,20,30.03,29.95,13,4,22,0.00
2013-3-31,57,43,29,38,22,13,92,48,21,30.04,29.70,16,5,27,0.05
2013-4-1,58,42,31,43,32,8,98,73,34,29.69,29.44,25,8,36,0.29
2013-4-2,36,30,25,18,10,3,53,42,29,29.83,29.69,35,14,38,0.00
2013-4-3,44,33,25,16,8,2,63,37,19,30.06,29.83,31,14,38,0.00
2013-4-4,55,40,28,20,12,7,55,36,16,30.22,29.93,19,9,25,0.00
2013-4-5,58,44,34,25,22,14,64,45,19,29.93,29.60,24,8,28,0.00
2013-4-6,44,34,26,19,5,-2,58,32,16,30.26,29.82,25,10,35,0.00
2013-4-7,57,43,26,38,20,1,77,41,23,30.26,29.89,22,8,35,0.00
2013-4-8,62,50,40,39,34,27,91,59,27,30.02,29.88,19,6,27,0.00
2013-4-9,66,52,42,47,40,35,94,67,40,30.00,29.80,16,4,31,0.04
2013-4-10,57,50,44,49,45,38,97,85,68,29.92,29.80,9,2,16,0.52
2013-4-11,46,42,36,44,34,23,97,77,42,30.08,29.79,13,5,18,0.05
2013-4-12,37,33,31,32,30,27,96,88,68,30.13,29.79,11,2,15,0.47
2013-4-13,52,41,32,38,33,31,97,77,51,29.88,29.74,12,3,25,0.07
2013-4-14,52,43,35,35,30,24,82,61,35,30.14,29.84,20,7,29,0.00
2013-4-15,59,43,32,35,30,27,81,62,34,30.30,30.15,15,4,21,0.00
2013-4-16,67,51,37,51,40,31,82,68,39,30.31,29.97,24,10,37,0.00
2013-4-17,63,54,44,52,32,24,89,48,23,30.26,29.97,20,9,27,0.00
2013-4-18,62,49,33,40,28,25,80,47,29,30.37,30.07,20,6,27,0.00
2013-4-19,72,61,50,61,54,39,94,77,55,30.07,29.53,25,10,40,0.08
2013-4-20,64,49,37,62,35,17,93,62,34,30.14,29.53,26,11,37,0.24
2013-4-21,52,41,31,22,16,11,58,39,21,30.61,30.15,20,6,24,0.00
2013-4-22,52,40,28,31,24,17,82,56,26,30.70,30.54,19,4,22,0.00
2013-4-23,39,36,31,38,34,28,96,92,83,30.54,30.11,13,2,14,0.00
2013-4-24,76,56,39,50,41,31,98,66,20,30.10,29.71,14,6,25,0.00
2013-4-25,61,53,44,49,31,18,90,47,20,30.21,29.70,23,9,31,0.04
2013-4-26,60,48,35,32,27,20,68,46,28,30.36,30.21,13,2,18,0.00
2013-4-27,65,51,35,36,32,28,86,52,26,30.35,30.21,10,3,15,0.00
2013-4-28,70,54,38,39,34,31,85,51,25,30.26,30.12,12,4,24,0.00
2013-4-29,71,57,44,44,34,27,62,44,25,30.18,30.10,19,5,22,0.00
2013-4-30,71,59,48,31,25,19,40,28,19,30.29,30.17,15,4,21,0.00
2013-5-1,73,57,38,34,28,23,65,36,17,30.39,30.29,13,4,20,0.00
2013-5-2,80,58,45,44,36,29,72,48,19,30.43,30.26,10,2,26,0.00
2013-5-3,65,52,38,44,39,33,89,64,39,30.46,30.31,13,3,19,0.00
2013-5-4,68,53,40,44,38,28,93,62,26,30.31,30.20,14,3,19,0.00
2013-5-5,68,50,32,40,34,30,96,62,27,30.27,30.16,13,4,16,0.00
2013-5-6,74,55,35,47,38,30,96,61,21,30.20,30.06,12,4,19,0.00
2013-5-7,80,64,48,55,46,28,96,61,15,30.10,30.00,10,4,18,0.00
2013-5-8,73,62,53,63,57,51,96,82,60,30.13,29.98,13,4,33,0.00
2013-5-9,68,60,56,59,57,55,97,90,66,29.98,29.82,9,2,14,0.01
2013-5-10,78,65,52,59,54,49,99,71,36,29.89,29.82,11,3,14,0.00
2013-5-11,66,62,57,62,58,53,96,87,75,29.82,29.62,16,7,26,0.18
2013-5-12,68,58,46,59,46,24,97,68,32,29.71,29.50,16,5,30,0.00
2013-5-13,54,46,39,31,27,24,68,49,34,29.98,29.72,24,8,31,0.00
2013-5-14,58,46,35,32,28,22,82,52,29,29.99,29.92,18,5,26,0.00
2013-5-15,65,50,37,51,36,26,94,64,24,29.98,29.59,23,5,25,0.07
2013-5-16,77,64,49,51,40,29,93,49,21,29.75,29.57,28,9,37,0.00
2013-5-17,68,56,46,42,38,32,74,53,27,30.15,29.76,20,6,27,0.00
2013-5-18,73,58,42,47,38,31,86,54,23,30.24,30.15,10,2,18,0.00
2013-5-19,70,56,48,54,50,45,96,81,51,30.27,30.13,12,4,19,0.05
2013-5-20,79,65,54,63,58,53,98,81,54,30.13,29.87,13,3,18,0.01
2013-5-21,74,60,49,64,56,47,97,89,65,29.98,29.83,13,2,20,0.07
2013-5-22,61,54,49,58,53,48,99,94,87,29.95,29.82,13,2,32,0.76
2013-5-23,74,61,51,68,60,50,99,94,76,29.86,29.71,16,5,26,0.18
2013-5-24,69,59,45,65,56,44,98,89,69,29.78,29.56,18,6,28,0.46
2013-5-25,46,43,37,45,42,35,98,95,85,29.78,29.67,20,8,28,0.36
2013-5-26,54,46,37,39,36,35,94,73,53,30.02,29.65,21,10,33,0.01
2013-5-27,69,55,39,41,36,32,91,55,26,30.12,30.02,18,6,28,0.00
2013-5-28,73,58,42,46,41,37,90,58,30,30.18,30.09,12,2,19,0.00
2013-5-29,64,59,52,61,56,45,96,91,77,30.11,29.92,9,1,15,0.29
2013-5-30,86,74,61,66,62,60,98,71,42,30.01,29.94,12,6,22,0.00
2013-5-31,91,79,66,67,62,57,89,59,34,30.01,29.86,12,5,21,0.00
2013-6-1,91,80,70,68,63,56,78,59,32,29.88,29.76,14,6,21,0.00
2013-6-2,89,77,68,69,65,60,95,71,38,29.78,29.60,29,6,33,0.17
2013-6-3,78,68,57,66,58,45,96,75,41,29.76,29.68,18,5,24,0.06
2013-6-4,68,59,49,45,42,37,72,55,39,30.03,29.76,22,6,29,0.00
2013-6-5,73,61,48,50,44,37,85,57,28,30.13,30.03,11,2,13,0.00
2013-6-6,72,61,52,55,49,44,85,66,46,30.13,30.03,12,2,16,0.00
2013-6-7,56,52,50,53,50,47,97,94,86,30.05,29.82,10,2,14,1.00
2013-6-8,75,61,50,60,55,49,100,84,59,29.91,29.62,14,7,21,0.77
2013-6-10,69,62,56,59,55,-100,96,79,67,30.15,29.96,10,-30,16,0.20
2013-6-11,58,56,53,55,54,53,97,94,87,29.95,29.53,9,1,20,0.92
2013-6-12,67,59,54,56,53,50,98,81,59,29.77,29.50,23,7,33,0.01
2013-6-13,64,56,52,57,52,49,97,87,62,29.76,29.65,9,1,16,0.25
2013-6-14,74,61,51,57,52,48,98,76,41,29.73,29.61,10,2,18,0.34
2013-6-15,75,65,50,52,45,39,84,52,29,29.87,29.74,15,5,23,0.00
2013-6-16,73,65,56,59,52,45,82,63,39,29.87,29.63,15,5,19,0.00
2013-6-17,80,66,60,62,58,53,97,77,41,29.83,29.71,21,6,36,0.11
2013-6-18,64,59,56,60,56,52,100,89,76,29.90,29.82,8,1,14,0.04
2013-6-19,72,61,50,54,48,40,97,67,33,30.09,29.87,9,2,15,0.00
2013-6-20,76,64,49,53,46,42,86,55,30,30.20,30.10,13,2,18,0.00
2013-6-21,82,70,58,59,53,45,84,58,30,30.18,30.14,9,3,14,0.00
2013-6-22,82,71,61,65,60,50,88,68,46,30.15,30.03,10,3,19,0.00
2013-6-23,88,75,63,73,66,61,96,75,53,30.06,29.89,12,4,22,0.01
2013-6-24,90,78,68,74,67,65,92,72,44,29.92,29.81,15,6,23,0.05
2013-6-25,87,75,67,70,67,63,98,77,50,29.86,29.66,15,5,20,0.32
2013-6-26,77,69,65,70,68,65,100,95,75,29.78,29.65,8,1,14,1.68
2013-6-27,70,66,61,67,64,60,100,95,86,29.80,29.70,7,3,11,0.00
2013-6-28,76,64,56,71,62,55,100,95,80,29.70,29.41,9,2,18,0.38
2013-6-29,82,74,66,71,68,65,99,82,59,29.62,29.44,22,7,23,0.00
2013-6-30,84,73,65,71,67,64,97,83,56,29.85,29.62,20,4,28,0.68
2013-7-1,76,72,68,73,70,67,100,95,81,29.99,29.85,7,2,10,0.47
2013-7-2,83,70,61,74,68,60,99,92,74,30.14,29.99,9,3,19,0.00
2013-7-3,85,73,61,73,67,60,98,83,62,30.15,30.06,11,3,15,0.00
2013-7-4,91,81,72,74,71,68,94,72,48,30.12,30.00,13,6,21,0.00
2013-7-5,92,82,74,74,71,69,90,71,49,30.07,29.95,15,5,22,0.00
2013-7-6,86,79,72,72,69,64,88,73,52,30.00,29.92,13,5,23,0.00
2013-7-7,89,78,69,75,67,59,82,69,51,29.95,29.84,10,3,13,0.00
2013-7-8,83,74,64,76,70,63,95,86,69,30.00,29.84,12,1,15,0.73
2013-7-9,74,68,64,68,65,62,97,91,79,30.04,29.99,7,1,10,0.00
2013-7-10,80,70,65,74,68,64,97,95,80,30.01,29.72,9,3,13,0.66
2013-7-11,82,74,66,73,70,62,98,88,65,29.88,29.68,9,2,13,0.11
2013-7-12,80,70,62,63,60,57,87,72,48,30.15,29.89,10,2,13,0.00
2013-7-13,80,70,61,70,64,57,94,82,68,30.25,30.15,6,1,10,0.00
2013-7-14,86,77,68,72,69,67,98,78,54,30.24,30.14,10,2,14,0.00
2013-7-15,91,79,70,72,68,65,92,72,43,30.14,30.04,13,2,18,0.00
2013-7-16,90,79,69,72,67,63,83,68,47,30.10,30.06,11,2,18,0.00
2013-7-17,91,81,70,73,68,66,87,67,47,30.11,29.90,10,2,13,0.00
2013-7-18,90,80,72,76,72,69,95,77,55,29.94,29.87,12,2,21,0.03
2013-7-19,93,82,70,74,71,69,96,71,47,29.87,29.64,16,6,38,0.00
2013-7-20,87,79,70,72,66,61,79,64,53,29.73,29.58,16,5,32,0.00
2013-7-21,81,71,64,70,64,60,95,79,53,29.93,29.73,7,2,12,0.01
2013-7-22,79,69,63,69,65,62,98,90,68,29.97,29.84,6,1,10,0.00
2013-7-23,76,68,65,70,66,64,98,93,76,29.84,29.48,9,1,11,1.53
2013-7-24,80,71,57,69,63,48,98,76,55,29.91,29.51,22,5,24,0.00
2013-7-25,69,61,54,58,52,45,92,75,59,30.06,29.92,9,2,14,0.00
2013-7-26,75,65,60,66,61,58,98,88,67,30.03,29.90,11,3,16,0.29
2013-7-27,83,70,58,63,59,55,95,72,41,30.00,29.93,10,4,15,0.00
2013-7-28,80,69,60,70,64,59,98,86,64,29.95,29.90,7,2,13,0.05
2013-7-29,83,72,65,71,66,63,98,84,51,29.98,29.89,13,3,16,0.00
2013-7-30,79,69,59,63,56,53,93,65,44,30.04,29.98,12,3,20,0.00
2013-7-31,80,69,58,65,58,54,95,70,43,30.08,29.98,7,2,10,0.00
2013-8-1,79,67,60,66,62,58,96,83,53,29.98,29.81,13,4,21,0.46
2013-8-2,80,70,63,66,60,53,98,74,39,29.81,29.73,14,3,21,0.67
2013-8-3,79,69,62,62,56,53,84,66,42,29.79,29.71,14,5,23,0.00
2013-8-4,76,65,57,60,54,50,86,69,49,29.84,29.72,13,4,22,0.00
2013-8-5,73,62,52,50,45,36,90,59,26,29.99,29.83,22,5,27,0.00
2013-8-6,77,63,51,58,50,45,80,65,43,30.09,30.00,9,2,14,0.00
2013-8-7,78,66,53,61,55,51,96,72,40,30.12,30.04,13,3,19,0.00
2013-8-8,82,72,63,70,64,56,93,79,61,30.05,29.93,13,6,21,0.00
2013-8-9,74,72,70,73,70,68,97,94,88,29.93,29.66,15,6,25,1.10
2013-8-10,79,70,58,69,58,46,97,67,32,29.95,29.71,19,5,26,0.00
2013-8-11,77,65,53,58,53,49,88,66,41,30.02,29.94,9,3,14,0.00
2013-8-12,79,68,60,63,56,52,80,65,45,29.96,29.86,10,2,14,0.00
2013-8-13,72,67,62,68,63,57,94,87,81,29.86,29.62,8,2,15,0.01
2013-8-14,71,63,56,63,53,48,96,70,50,29.89,29.59,22,7,28,0.00
2013-8-15,73,62,52,55,50,47,88,67,44,30.04,29.89,14,5,21,0.00
2013-8-16,76,65,54,58,52,49,84,66,43,30.13,30.03,10,3,15,0.00
2013-8-17,78,66,55,62,55,51,87,70,40,30.22,30.13,8,1,11,0.00
2013-8-18,77,67,57,65,59,56,98,79,48,30.21,30.01,5,1,9,0.00
2013-8-19,78,69,59,63,60,57,93,74,54,30.02,29.89,10,3,14,0.00
2013-8-20,83,72,62,65,60,57,85,69,42,30.03,29.92,9,2,12,0.00
2013-8-21,85,74,64,67,61,58,82,67,40,30.07,29.95,9,3,14,0.00
2013-8-22,86,74,65,70,65,60,94,75,43,29.96,29.75,12,4,16,0.05
2013-8-23,76,67,56,67,56,48,95,70,39,30.07,29.75,19,5,23,0.00
2013-8-24,75,62,50,54,49,43,92,65,33,30.28,30.08,9,1,14,0.00
2013-8-25,79,67,53,57,52,44,87,63,30,30.30,30.10,15,3,16,0.00
2013-8-26,78,70,61,67,62,54,95,78,60,30.10,29.79,10,4,18,0.03
2013-8-27,83,73,66,68,66,63,97,79,53,29.83,29.77,8,2,10,0.00
2013-8-28,84,72,63,70,66,62,99,83,56,29.92,29.78,11,2,15,0.05
2013-8-29,65,63,59,64,62,58,100,96,90,30.02,29.88,8,1,12,0.24
2013-8-30,82,70,58,67,63,58,100,81,55,29.96,29.75,8,2,13,0.00
2013-8-31,78,72,67,74,69,65,98,91,76,29.76,29.69,9,3,13,0.06
2013-9-1,82,74,69,73,69,65,100,86,69,29.80,29.71,10,2,16,0.20
2013-9-2,75,71,66,74,70,66,100,98,90,29.79,29.63,9,2,16,2.11
2013-9-3,75,68,59,68,63,56,100,86,71,29.73,29.63,9,2,14,0.00
2013-9-4,78,66,57,58,55,51,94,71,42,29.85,29.73,14,5,20,0.00
2013-9-5,67,60,46,57,48,39,88,68,38,30.10,29.79,13,3,19,0.00
2013-9-6,67,54,42,48,42,35,88,65,35,30.19,30.02,9,2,14,0.00
2013-9-7,76,62,51,58,48,42,80,61,33,30.02,29.78,10,3,16,0.00
2013-9-8,67,60,46,58,47,40,80,62,42,30.03,29.68,22,6,29,0.00
2013-9-9,67,55,42,50,43,37,87,67,41,30.17,30.03,11,3,15,0.00
2013-9-10,74,65,54,68,61,49,96,89,79,30.07,29.96,13,4,22,0.03
2013-9-11,90,78,67,75,71,64,100,80,52,29.99,29.85,18,5,33,0.02
2013-9-12,79,70,65,75,67,63,100,92,73,29.85,29.59,13,4,32,1.56
2013-9-13,72,65,56,68,62,51,100,89,70,29.71,29.53,14,4,23,0.01
2013-9-14,63,56,50,52,50,48,94,81,65,29.99,29.71,13,3,21,0.00
2013-9-15,67,56,46,53,49,45,100,80,50,30.09,29.98,11,3,13,0.00
2013-9-16,63,55,42,54,47,34,86,74,58,30.20,29.94,15,5,26,0.00
2013-9-17,62,48,36,47,38,34,93,71,42,30.38,30.20,11,2,13,0.00
2013-9-18,71,56,43,49,43,37,90,64,31,30.27,30.08,7,2,12,0.00
2013-9-19,76,62,51,59,50,46,83,67,39,30.08,29.98,7,2,9,0.00
2013-9-20,76,62,50,59,55,49,98,78,47,30.03,29.94,10,2,13,0.00
2013-9-21,73,62,50,62,57,50,100,86,59,29.95,29.64,15,6,28,0.00
2013-9-22,67,60,49,65,54,41,97,80,51,29.77,29.52,18,7,25,0.71
2013-9-23,57,49,43,42,39,37,86,71,54,29.95,29.78,21,7,28,0.00
2013-9-24,63,51,42,43,40,37,84,67,42,29.93,29.77,21,7,27,0.00
2013-9-25,67,54,45,51,46,42,88,74,55,29.93,29.82,10,2,16,0.00
2013-9-26,65,55,46,52,48,44,96,77,52,30.09,29.93,10,1,11,0.00
2013-9-27,65,57,52,54,50,49,92,81,59,30.21,30.09,9,1,14,0.00
2013-9-28,72,57,47,56,50,46,97,80,49,30.28,30.21,11,1,14,0.00
2013-9-29,67,54,45,55,49,45,100,83,47,30.21,30.07,9,2,11,0.00
2013-9-30,68,53,40,53,47,40,100,84,48,30.07,29.92,7,1,11,0.00
2013-10-1,74,60,47,59,52,46,98,77,44,29.92,29.80,15,2,19,0.00
2013-10-2,77,66,54,61,56,50,85,71,51,29.88,29.77,16,5,24,0.00
2013-10-3,74,63,53,53,49,45,80,63,36,30.02,29.88,8,2,12,0.00
2013-10-4,62,57,50,56,52,48,95,85,67,30.03,29.98,6,0,8,0.00
2013-10-5,63,59,56,56,54,48,94,83,67,30.06,29.99,5,0,8,0.00
2013-10-6,59,52,48,56,51,47,99,94,86,30.18,30.05,8,1,13,0.16
2013-10-7,72,59,53,68,58,51,100,96,84,30.08,29.70,26,4,37,0.80
2013-10-8,63,53,42,51,41,34,88,67,35,30.32,29.82,19,5,24,0.00
2013-10-9,60,46,35,45,39,34,98,80,44,30.44,30.32,7,1,10,0.00
2013-10-10,57,47,38,49,43,35,100,87,45,30.32,30.14,2,0,7,0.00
2013-10-11,69,54,44,52,47,43,100,79,39,30.14,30.06,6,1,11,0.00
2013-10-12,54,50,44,53,49,43,98,96,92,30.35,30.12,6,0,11,0.00
2013-10-13,57,48,40,49,45,40,99,90,68,30.40,30.33,8,1,14,0.00
2013-10-14,65,51,38,49,44,38,100,79,51,30.34,30.17,8,2,12,0.00
2013-10-15,62,56,52,54,51,47,97,82,70,30.21,30.12,8,1,10,0.00
2013-10-16,59,53,48,53,50,46,100,89,66,30.12,29.84,8,1,10,0.00
2013-10-17,72,58,49,56,48,42,100,73,35,29.84,29.64,14,4,18,0.00
2013-10-18,64,56,48,59,47,34,100,73,49,29.82,29.51,21,7,25,0.12
2013-10-19,65,53,42,44,40,35,83,63,40,29.89,29.67,9,4,16,0.00
2013-10-20,59,50,43,47,38,32,91,64,41,29.94,29.61,21,8,30,0.00
2013-10-21,64,51,39,43,37,34,82,61,39,30.04,29.90,16,5,20,0.00
2013-10-22,59,51,43,49,44,33,88,75,64,29.90,29.64,21,6,23,0.00
2013-10-23,51,44,35,34,31,27,82,62,41,29.72,29.52,12,1,16,0.00
2013-10-24,48,42,35,35,29,25,81,61,42,29.80,29.58,25,8,33,0.00
2013-10-25,47,39,31,32,27,23,93,66,43,30.07,29.81,18,5,23,0.00
2013-10-26,51,42,32,32,27,24,88,59,37,30.07,29.80,20,7,32,0.00
2013-10-27,52,45,37,36,30,24,74,57,41,29.98,29.72,18,6,26,0.00
2013-10-28,54,41,30,34,29,21,81,63,40,30.29,29.98,15,6,28,0.00
2013-10-29,46,35,26,24,18,12,76,52,27,30.40,30.29,9,1,12,0.00
2013-10-30,48,38,29,36,28,15,88,67,52,30.30,30.14,7,1,12,0.00
2013-10-31,59,45,32,58,43,31,99,92,79,30.18,29.71,19,5,28,0.04
2013-11-1,67,62,56,61,54,44,95,78,62,29.70,29.33,31,12,46,0.08
2013-11-2,63,53,45,48,42,38,93,68,40,29.67,29.52,14,3,19,0.01
2013-11-3,46,36,26,42,21,8,87,56,29,30.37,29.68,20,7,26,0.00
2013-11-4,40,30,23,17,13,8,69,52,28,30.65,30.37,8,1,14,0.00
2013-11-5,48,36,24,32,24,16,83,63,45,30.66,30.44,10,3,15,0.00
2013-11-6,59,49,38,45,39,32,86,70,52,30.44,29.93,22,7,27,0.00
2013-11-7,60,52,38,55,46,28,87,79,65,29.94,29.61,26,10,34,0.03
2013-11-8,44,36,30,31,24,20,76,60,45,30.01,29.73,20,9,32,0.00
2013-11-9,42,36,31,26,21,18,66,55,41,30.14,29.95,14,7,23,0.00
2013-11-10,47,40,33,39,33,26,94,77,65,29.95,29.67,18,6,26,0.02
2013-11-11,49,42,35,30,25,20,70,53,33,30.02,29.78,23,8,32,0.00
2013-11-12,44,32,25,33,19,12,88,59,45,30.10,29.80,16,9,29,0.01
2013-11-13,33,26,20,14,10,6,69,52,35,30.23,30.07,16,7,26,0.00
2013-11-14,49,38,25,26,19,12,64,49,38,30.06,29.98,16,5,26,0.00
2013-11-15,56,45,34,24,15,11,48,32,17,30.11,30.03,10,4,16,0.00
2013-11-16,58,47,38,29,25,21,71,44,25,30.24,30.11,8,2,10,0.00
2013-11-17,46,38,32,46,35,27,99,89,71,30.24,29.80,7,0,10,0.02
2013-11-18,61,53,44,56,43,30,100,72,39,29.79,29.45,23,8,30,0.25
2013-11-19,44,35,28,30,19,12,65,51,40,30.23,29.57,27,13,36,0.00
2013-11-20,38,30,25,14,11,7,59,48,28,30.57,30.23,18,7,28,0.00
2013-11-21,45,34,21,28,15,6,68,49,20,30.58,30.30,9,2,13,0.00
2013-11-22,42,39,38,42,36,28,100,92,63,30.30,29.75,6,1,11,0.12
2013-11-23,43,36,25,43,24,7,100,64,36,29.86,29.69,25,10,31,0.01
2013-11-24,25,20,15,17,1,-6,86,47,29,30.10,29.70,31,16,47,0.02
2013-11-25,30,21,12,12,-1,-10,55,39,22,30.30,30.11,18,8,28,0.00
2013-11-26,35,31,27,31,21,9,96,69,44,30.25,30.02,12,4,18,0.10
2013-11-27,51,42,32,51,41,27,100,97,75,30.01,29.19,18,6,30,1.87
2013-11-28,35,27,18,28,11,0,81,53,31,30.35,29.36,30,12,39,0.00
2013-11-29,28,20,14,11,6,-1,83,56,29,30.69,30.35,14,4,20,0.00
2013-11-30,28,20,8,17,9,3,80,62,45,30.75,30.38,11,3,16,0.00
2013-12-1,33,31,27,32,27,17,98,85,67,30.38,29.98,6,1,12,0.05
2013-12-2,37,34,33,37,34,32,100,98,97,29.98,29.86,5,1,9,0.00
2013-12-3,47,36,31,37,31,28,100,84,51,29.88,29.80,12,4,19,0.00
2013-12-4,39,33,28,28,25,22,92,73,54,30.13,29.88,11,3,19,0.00
2013-12-5,37,33,31,37,30,24,98,89,76,30.15,29.85,5,0,9,0.02
2013-12-6,45,41,32,45,36,27,100,86,54,30.08,29.80,15,4,22,0.10
2013-12-7,34,30,23,30,23,14,96,77,51,30.37,30.00,19,4,23,0.06
2013-12-8,27,24,19,17,14,12,79,66,53,30.52,30.37,9,2,12,0.00
2013-12-9,32,27,22,31,24,13,96,88,62,30.44,29.82,4,0,8,0.26
2013-12-10,33,28,18,32,24,11,96,85,68,29.89,29.72,14,1,20,0.04
2013-12-11,30,22,15,16,13,11,87,69,49,30.11,29.89,14,6,26,0.00
2013-12-12,20,16,10,17,2,-7,87,59,30,30.20,29.97,19,6,26,0.00
2013-12-13,24,16,5,16,6,-6,80,64,56,30.35,29.89,14,7,22,0.00
2013-12-14,11,7,3,8,-4,-11,85,62,40,30.56,30.19,12,3,15,0.11
2013-12-15,28,19,11,25,15,8,91,85,77,30.16,29.42,15,6,19,0.45
2013-12-16,25,19,9,15,6,-2,83,61,37,30.13,29.66,21,8,32,0.00
2013-12-17,12,6,-4,9,-1,-11,85,74,54,30.21,29.97,8,2,12,0.05
2013-12-18,31,23,12,18,16,9,87,75,55,29.99,29.85,23,6,25,0.04
2013-12-19,39,32,25,25,20,18,76,64,48,30.03,29.88,15,6,21,0.00
2013-12-20,45,38,31,36,29,24,80,68,59,30.04,29.84,11,3,15,0.00
2013-12-21,57,47,38,46,39,30,86,72,59,29.86,29.77,13,4,19,0.00
2013-12-22,51,39,33,48,38,32,97,94,85,29.85,29.73,13,3,15,0.06
2013-12-23,36,31,30,36,27,-100,100,95,98,30.06,0.00,21,-30,21,0.26
2013-12-24,33,28,19,33,14,-100,97,62,49,30.16,30.01,19,-6,30,0.00
2013-12-25,19,14,7,4,0,-5,68,53,36,30.49,30.17,22,7,28,0.00
2013-12-26,26,21,15,23,15,2,92,78,55,30.46,30.07,12,2,18,0.06
2013-12-27,32,26,22,20,18,16,86,72,56,30.22,30.14,18,7,20,0.00
2013-12-28,43,34,25,28,24,18,79,68,51,30.15,29.93,15,5,21,0.00
2013-12-29,39,34,32,32,28,26,97,80,64,29.98,29.46,7,2,12,0.87
2013-12-30,36,28,10,34,21,1,97,75,51,30.13,29.50,26,8,31,0.01
2013-12-31,20,13,4,12,1,-8,80,60,42,30.13,29.98,8,3,18,0.00
2014-1-1,22,16,12,7,4,2,72,60,46,30.34,30.13,14,5,26,0.00
2014-1-2,15,6,-2,7,1,-8,84,79,68,30.32,29.89,11,5,20,0.12